Aeroporto :
LOGIN :

Iscrizione | Disclaimer

   EN    FR    IT 

 










Sommario :    VFR   VFR Marginale   IFR   IFR Intensivo   IFR Molto Intensivo
Visibilità : 
Base nubi : 
>= 8 km
>= 3000ft
5 / 8 km
1000 / 3000 ft
1500m / 5 km
500 / 1000 ft
800 / 1500m
200 / 500 ft
< 800m
< 200 ft
Simboli :   Temporali  Nebbia  Neve Forte  Precipitazioni Forti  Vento > 20 kt
SIGMETs :   Varie  Temporali  Ghiacco  Turbolenza  Onda orograficha  Ceneri Vulcaniche






- Altitudine del aeroporto : 2936 ft


LECH - Calamocha

ULTIMO METAR :
  • 200200Z AUTO 00000KT 8000 SCT031 15/13 Q1018

METARs OBSOLETI :
  • 200130Z AUTO 00000KT 7000 OVC030 16/13 Q1019
  • 200100Z AUTO 00000KT 8000 OVC028 16/14 Q1019
  • 200030Z AUTO 00000KT 8000 OVC030 15/13 Q1019
  • 200000Z AUTO VRB02KT 8000 SCT018 BKN027 16/13 Q1019
  • 192330Z AUTO 19002KT 8000 BKN015 OVC030 16/14 Q1019

Previsioni scadute.



MetMap, La meteo Aeronautica in un colpo d'occhio ! - Copyright ORBIFLY Dicembre 2007 - Disclaimer

ORBIFLY MET'MAP TEAM :

Programmazione e sviluppo : Alexandra Zaïnal
Concezione : Baudouin d'Aumeries
Aiuto per la programmazione : Marc-Olivier Méhu
Supporto tecnico e logistico : Manuel Goepfert
Aiuto per la traduzione : Arnaldo La Scala

Contatto : metmap@orbifly.com




FONTI E CREDITI :

   NOAA